TimeCST,TemperatureF,Dew PointF,Humidity,Sea Level PressureIn,VisibilityMPH,Wind Direction,Wind SpeedMPH,Gust SpeedMPH,PrecipitationIn,Events,Conditions,WindDirDegrees,DateUTC
12:55 AM,34.3,21.4,59,30.41,10.0,SSE,6.9,-,N/A,,Partly Cloudy,160,2012-11-14 06:55:00
1:55 AM,34.7,21.7,59,30.41,10.0,SSE,8.1,-,N/A,,Partly Cloudy,160,2012-11-14 07:55:00
2:55 AM,33.3,22.3,64,30.40,10.0,ESE,4.6,-,N/A,,Scattered Clouds,120,2012-11-14 08:55:00
3:55 AM,33.3,22.5,65,30.39,10.0,SE,6.9,-,N/A,,Clear,140,2012-11-14 09:55:00
4:55 AM,34.0,23.0,64,30.38,10.0,SE,6.9,-,N/A,,Clear,130,2012-11-14 10:55:00
5:55 AM,35.2,23.2,62,30.37,10.0,SSE,9.2,-,N/A,,Scattered Clouds,150,2012-11-14 11:55:00
6:55 AM,35.6,23.0,60,30.36,10.0,South,11.5,-,N/A,,Overcast,170,2012-11-14 12:55:00
7:55 AM,35.6,24.8,65,30.37,10.0,SSE,10.4,-,N/A,,Overcast,160,2012-11-14 13:55:00
8:55 AM,37.4,24.8,60,30.38,10.0,South,5.8,-,N/A,,Mostly Cloudy,180,2012-11-14 14:55:00
9:55 AM,41.0,26.6,57,30.38,10.0,Calm,Calm,-,N/A,,Mostly Cloudy,0,2012-11-14 15:55:00
10:55 AM,42.8,26.6,53,30.37,10.0,South,4.6,-,N/A,,Mostly Cloudy,170,2012-11-14 16:55:00
11:55 AM,46.4,28.4,50,30.34,10.0,SSW,8.1,-,N/A,,Mostly Cloudy,200,2012-11-14 17:55:00
12:55 PM,46.4,28.4,50,30.32,10.0,South,6.9,-,N/A,,Mostly Cloudy,180,2012-11-14 18:55:00
1:55 PM,50.0,30.2,47,30.30,10.0,South,8.1,-,N/A,,Scattered Clouds,180,2012-11-14 19:55:00
2:55 PM,50.0,28.4,43,30.30,10.0,South,8.1,-,N/A,,Mostly Cloudy,170,2012-11-14 20:55:00
3:55 PM,48.2,28.4,46,30.30,10.0,South,5.8,-,N/A,,Mostly Cloudy,180,2012-11-14 21:55:00
4:55 PM,44.6,28.4,53,30.29,10.0,South,5.8,-,N/A,,Mostly Cloudy,170,2012-11-14 22:55:00
5:55 PM,42.8,30.2,61,30.29,10.0,South,8.1,-,N/A,,Mostly Cloudy,170,2012-11-14 23:55:00
6:55 PM,42.8,30.2,61,30.30,10.0,SSE,6.9,-,N/A,,Mostly Cloudy,150,2012-11-15 00:55:00
7:55 PM,42.8,30.2,61,30.30,10.0,SSE,8.1,-,N/A,,Mostly Cloudy,160,2012-11-15 01:55:00
8:55 PM,42.8,30.2,61,30.29,10.0,South,9.2,-,N/A,,Mostly Cloudy,170,2012-11-15 02:55:00
9:55 PM,41.0,30.2,65,30.29,10.0,SSE,8.1,-,N/A,,Mostly Cloudy,160,2012-11-15 03:55:00
10:55 PM,41.0,30.2,65,30.28,10.0,South,10.4,-,N/A,,Mostly Cloudy,170,2012-11-15 04:55:00
11:55 PM,41.0,30.2,65,30.28,10.0,South,8.1,-,N/A,,Mostly Cloudy,170,2012-11-15 05:55:00